This demonstration page uses our WeatherBlox Daily Observations layout. Learn more.

Left ArrowRight Arrow

Hourly Observations for July 26, 2016

Temp ( °F °C ) Dew Point ( °F °C ) Humidity (%) Winds ( mph kmh ) Pressure ( in mb ) Visibility ( mi km ) Precip ( " mm )
12:53 am 00:53 Clear 75 23.9 72 22.2 90 90 N N/A 29.98 1015 10 16 N/A
1:53 am 01:53 Clear 77 25 72 22.2 85 85 N N/A 29.99 1016 10 16 N/A
2:53 am 02:53 Clear 78 25.6 71 21.7 79 79 N N/A 29.99 1016 10 16 N/A
3:53 am 03:53 Clear 76 24.4 71 21.7 85 85 N N/A 30.00 1016 10 16 N/A
4:53 am 04:53 Mostly Clear 74 23.3 69 20.6 85 85 N N/A 30.00 1016 10 16 N/A
5:53 am 05:53 Mostly Clear 74 23.3 68 20 82 82 N N/A 30.01 1016 10 16 N/A
6:22 am 06:22 Mostly Cloudy 74 23.3 68 20 82 82 N N/A 30.06 1018 10 16 N/A
6:50 am 06:50 Cloudy 75 24 68 20 78 78 N N/A 30.06 1018 10 16 N/A
6:53 am 06:53 Cloudy 76 24.4 68 20 77 77 N N/A 30.03 1017 10 16 N/A
7:53 am 07:53 Mostly Sunny 77 25 68 20 74 74 N N/A 30.03 1017 10 16 N/A
8:53 am 08:53 Sunny 80 26.7 68 20 67 67 VRB 3 6 30.03 1017 10 16 N/A
9:53 am 09:53 Mostly Cloudy with Light Rain 79 26.1 69 20.6 72 72 N N/A 30.04 1017 10 16 N/A
10:53 am 10:53 Cloudy with Light Rain 77 25 72 22.2 85 85 NNW 5 7 30.04 1017 9 14 0.04 1.02
11:53 am 11:53 Cloudy with Light Rain 76 24.4 72 22.2 88 88 NW 5 7 30.05 1018 6 10 0.04 1.02
12:53 pm 12:53 Cloudy with Light Rain 76 24.4 72 22.2 88 88 NW 5 7 30.05 1018 5 8 0.04 1.02
1:53 pm 13:53 Mostly Cloudy with Rain 76 24.4 72 22.2 88 88 NNW 7 11 30.02 1017 5 8 0.03 0.76
2:53 pm 14:53 Cloudy 80 26.7 72 22.2 76 76 N 3 6 30.02 1017 10 16 0.01 0.25
3:53 pm 15:53 Sunny with Light Rain 81 27.2 71 21.7 72 72 N 5 7 30.00 1016 10 16 N/A
4:53 pm 16:53 Mostly Cloudy 82 27.8 72 22.2 72 72 N N/A 29.99 1016 10 16 N/A
5:39 pm 17:39 Mostly Cloudy 84 28.9 71 21.7 65 65 N N/A 29.97 1015 10 16 N/A
5:53 pm 17:53 Cloudy 83 28.3 71 21.7 67 67 WNW 3 6 29.98 1015 10 16 N/A
6:20 pm 18:20 Mostly Cloudy 84 28.9 70 21.1 63 63 NNW 5 7 29.97 1015 10 16 N/A
6:53 pm 18:53 Cloudy 84 28.9 72 22.2 67 67 N N/A 29.98 1015 10 16 N/A
7:53 pm 19:53 Partly Cloudy 81 27.2 74 23.3 79 79 N N/A 29.98 1015 10 16 N/A
8:53 pm 20:53 Mostly Cloudy 79 26.1 73 22.8 82 82 N N/A 29.99 1016 10 16 N/A
9:53 pm 21:53 Mostly Clear 76 24.4 73 22.8 91 91 N N/A 29.99 1016 9 14 N/A
10:53 pm 22:53 Mostly Cloudy 74 23.3 72 22.2 94 94 N N/A 30.01 1016 10 16 N/A
11:53 pm 23:53 Partly Cloudy 73 22.8 71 21.7 94 94 WNW 3 6 30.00 1016 10 16 N/A

Powered by AerisWeather